{"data":{"norad_id":66708,"intl_designator":"2025-276AU","name":"FLOCK 4H-5","alt_names":[],"object_type":"PAYLOAD","status":"ACTIVE","operator":null,"country":"US","launch_date":"2025-11-28","launch_site_code":"AFWTR","launch_vehicle":null,"mission":null,"orbit_class":"UNKNOWN","rcs_meters":null,"size_class":null,"mass_kg":null,"dimensions":null,"purposes":["earth_obs"],"wikipedia_slug":null,"has_3d_model":false,"image_url":null,"decayed_at":null,"tle_current":{"epoch":"2026-09-19T23:15:27.546912Z","epoch_age_seconds":64228,"freshness":"FRESH","line1":"1 66708U 25276AU  26262.96906883  .00004242  00000+0  19133-3 0  9997","line2":"2 66708  97.4097 335.2019 0001653  69.4154 290.7259 15.21550327 44847","mean_motion":15.21550327,"eccentricity":0.0001653,"inclination_deg":97.4097,"raan_deg":335.2019,"arg_perigee_deg":69.4154,"mean_anomaly_deg":290.7259,"bstar":0.00019133,"rev_number":4484,"period_min":94.640313530687,"perigee_km":500.02655592697,"apogee_km":502.30085273983,"semimajor_km":6879.3007043334,"source":"CELESTRAK","updated_at":"2026-09-20T09:00:34.748512Z"}}}